Wind_Speed
29 29 30 30 30 31 30 29 28 26 26 25 24 23 22 22 23 23 24 24 24 24 24 25 26 27 28 27 26 26 27 28 28 27 27 28 28 29 29 29 31 33 34 35 36 36 37 39 40 41 42 43 43 44 45 45 45 44 42 39 35 32 30 30 29 29 31 33 34 34 37 38 39 40 43 45 47 47 46 46 47 49 50 51 50
30 29 30 30 31 31 31 31 30 29 28 27 26 25 24 25 25 27 27 26 26 27 27 27 28 29 30 29 28 28 28 29 29 28 29 29 30 30 31 31 32 34 35 36 37 37 38 39 40 41 43 43 44 44 45 46 46 46 44 42 37 33 31 30 30 31 33 34 34 34 36 38 39 40 43 46 49 49 48 48 49 51 52 54 54
29 29 30 30 31 31 32 33 32 31 30 29 28 27 27 27 28 29 30 29 29 29 29 30 31 32 31 30 30 30 30 31 30 30 30 31 31 31 32 33 33 35 36 37 38 39 40 41 41 42 43 44 45 45 46 47 47 48 47 44 39 34 32 31 31 31 33 34 35 35 36 38 39 41 44 47 50 51 50 50 51 53 55 56 57
30 30 31 31 31 31 32 33 32 32 32 31 31 30 30 30 31 31 32 32 32 32 32 33 34 33 32 31 31 31 31 32 32 32 33 33 32 32 33 34 35 36 37 38 39 40 41 42 43 43 44 44 45 46 46 47 48 48 48 47 42 36 33 31 31 31 31 33 35 35 36 37 39 41 43 48 51 52 52 51 53 55 57 58 59
31 32 32 31 31 31 31 32 32 32 32 32 32 32 32 33 33 33 33 33 33 34 34 34 34 34 32 31 32 33 33 33 33 34 35 35 34 34 35 36 37 38 39 40 41 41 42 43 44 45 45 45 46 46 47 48 48 48 48 48 45 39 35 32 32 31 31 32 35 36 35 36 38 40 43 48 51 53 53 53 54 57 59 60 60
33 33 33 32 32 32 32 32 32 31 32 33 33 33 34 34 34 34 34 34 34 35 35 35 35 34 32 32 33 34 35 35 35 36 36 37 36 36 36 38 39 40 41 42 43 43 44 45 46 46 47 47 47 47 48 48 48 48 48 48 46 42 36 33 32 32 32 32 34 34 33 34 36 39 42 47 50 53 53 54 55 58 61 62 62
35 36 35 35 35 34 34 33 32 32 33 34 34 35 35 35 35 35 35 35 35 35 35 35 35 34 34 34 35 36 37 37 37 37 38 38 39 39 39 39 41 42 43 45 45 46 46 46 47 48 48 48 49 49 49 49 49 49 49 48 46 42 37 34 33 33 33 33 32 30 30 32 35 38 41 46 49 53 54 55 56 59 63 64 63
37 38 37 37 37 37 35 34 34 34 35 36 36 36 36 36 36 36 36 36 37 37 37 36 36 36 36 36 36 37 38 40 40 39 38 40 41 41 41 41 42 44 45 47 47 47 48 48 49 50 50 50 50 50 51 50 50 50 50 49 46 42 37 33 33 33 34 34 31 28 29 32 35 38 41 45 49 53 55 57 58 60 64 66 65
39 39 39 40 39 38 37 36 37 37 38 38 38 38 39 39 38 38 38 38 38 38 38 38 38 38 38 38 38 38 40 42 42 40 40 41 43 44 44 44 45 46 47 49 50 50 50 50 51 52 52 51 52 52 52 52 51 51 51 49 45 41 37 34 33 34 35 35 32 28 29 33 35 38 41 45 49 53 56 59 60 62 65 68 67
40 41 41 41 40 39 39 40 40 40 41 40 40 40 40 40 40 40 39 39 39 39 39 40 40 40 40 40 40 41 41 42 43 42 42 43 44 45 46 47 47 48 50 51 52 53 53 53 53 54 54 53 53 53 54 54 53 52 52 49 44 40 38 37 36 35 37 38 34 29 30 34 36 39 42 46 50 55 58 61 62 63 67 69 68
42 42 43 42 41 41 42 42 42 42 42 41 41 41 40 40 41 41 41 41 40 40 41 42 42 42 42 42 43 43 43 43 44 44 44 45 46 47 48 49 50 51 53 54 54 55 56 56 56 57 57 56 55 55 55 56 55 54 53 49 44 40 39 39 38 38 40 40 35 29 31 35 37 40 44 47 51 56 60 62 63 64 67 69 69
44 44 44 43 43 43 43 43 43 43 43 42 42 42 42 42 43 43 42 42 42 43 44 44 43 44 44 44 45 45 45 45 46 47 47 48 48 49 50 51 52 54 55 57 57 58 58 59 59 60 60 59 58 58 58 58 57 55 54 50 45 41 40 40 39 40 42 41 34 29 32 36 39 42 46 49 52 57 61 63 63 65 67 69 69
46 46 46 45 46 45 45 45 45 45 45 44 44 44 44 45 45 45 45 44 45 46 46 45 45 46 46 47 47 47 48 49 49 50 51 51 51 52 52 54 55 57 58 59 60 61 61 62 62 63 62 62 61 61 60 59 58 56 54 50 45 41 39 39 40 42 43 40 33 30 33 38 41 44 47 50 54 58 62 64 64 66 68 68 69
48 48 48 48 48 48 47 48 47 47 47 46 46 46 47 47 48 48 47 47 47 48 48 48 48 49 49 49 50 50 51 53 53 54 54 54 55 55 55 57 58 60 61 62 62 63 64 64 65 65 64 64 63 63 62 60 58 56 54 50 45 40 37 37 40 42 41 37 32 31 34 39 44 46 49 52 55 58 62 64 65 66 68 68 69
51 51 51 51 51 50 50 50 50 50 49 49 48 48 49 50 51 51 50 50 50 51 51 52 52 52 52 52 52 53 55 56 57 58 58 58 58 57 58 60 62 63 64 65 65 65 66 67 68 67 66 66 65 64 63 60 58 56 54 50 45 39 36 37 40 41 40 36 32 32 35 41 45 48 50 53 56 59 63 65 66 67 68 68 70
54 54 55 54 54 54 53 53 53 53 53 52 51 52 52 53 54 54 54 54 54 54 55 56 56 56 56 56 56 57 58 60 61 61 61 61 61 61 62 63 64 65 66 67 67 68 69 69 70 70 68 67 66 64 62 60 57 54 51 48 43 38 36 38 40 41 39 35 32 33 37 41 46 48 51 54 57 59 62 65 66 67 68 68 70
58 58 58 58 57 57 57 57 57 56 56 56 56 57 57 57 57 57 57 57 57 58 59 59 60 60 61 61 61 61 62 63 64 65 66 65 64 64 65 65 66 67 68 69 70 71 71 71 71 71 69 67 66 63 60 58 55 51 48 45 41 37 36 38 40 40 38 34 33 35 38 42 46 49 52 55 57 59 62 64 66 68 69 69 71
59 60 60 60 60 60 59 59 60 60 60 60 61 61 61 61 61 60 60 60 61 61 62 63 63 64 64 65 64 64 65 66 68 69 70 69 68 68 68 69 69 69 70 71 72 71 71 70 71 71 67 65 63 60 57 54 51 47 44 41 38 36 36 38 40 39 36 33 34 37 39 43 47 51 54 56 58 59 62 64 66 68 69 71 72
56 57 59 59 60 61 61 62 62 63 63 64 64 64 65 65 64 64 64 64 65 65 65 66 67 68 68 68 68 68 69 69 70 71 72 73 73 72 72 71 71 70 71 71 71 70 69 68 68 68 64 61 59 56 51 49 46 42 39 37 35 35 35 37 39 37 34 34 36 38 41 45 48 52 55 57 57 59 62 64 66 68 70 72 73
49 51 53 54 55 56 58 59 60 61 62 63 64 64 65 66 66 66 66 66 66 67 67 67 68 69 69 69 68 68 69 69 69 70 71 71 72 72 71 70 69 68 67 67 67 67 66 64 64 63 60 56 52 47 44 42 40 38 37 35 34 34 35 36 37 36 35 37 39 41 44 48 50 53 56 57 57 59 62 65 67 69 71 73 74
44 46 47 48 48 50 51 52 54 55 55 56 56 56 57 59 60 60 61 62 62 62 62 62 63 63 63 63 63 63 63 63 63 65 66 65 65 65 64 63 63 62 60 62 63 62 60 59 57 57 54 48 41 38 37 37 36 35 35 35 33 33 34 35 35 36 38 40 43 46 48 50 52 55 57 57 58 60 63 66 68 70 71 74 75
40 41 43 43 44 45 45 47 48 48 48 49 49 50 51 52 52 53 53 54 54 54 54 54 54 54 54 55 55 56 57 57 57 58 60 60 60 60 58 56 55 53 53 54 56 55 53 51 51 51 47 39 32 32 33 34 34 34 34 32 31 31 31 33 36 39 42 45 48 51 51 52 53 56 59 59 60 62 64 66 69 71 72 74 76
40 40 41 41 42 42 42 43 44 44 45 46 47 48 49 50 49 50 50 50 50 49 49 49 49 49 49 50 51 52 53 54 54 54 56 57 56 56 56 53 50 48 48 49 50 49 46 44 45 47 42 33 27 27 30 32 33 34 32 29 29 30 32 35 39 43 46 49 53 54 54 55 56 58 60 61 62 64 66 67 69 71 73 75 76
40 41 42 42 42 42 42 43 43 43 44 45 46 47 48 48 49 49 49 49 48 47 48 48 47 48 48 49 50 52 52 52 52 53 54 55 54 54 54 53 50 47 45 43 43 43 41 39 40 41 38 30 25 26 30 33 34 33 30 29 31 35 38 40 43 47 50 53 55 56 56 58 60 60 61 62 64 67 68 69 70 72 73 75 77
41 42 43 43 44 44 44 44 44 44 45 45 46 47 47 47 48 48 48 48 48 48 49 49 48 48 49 50 52 53 53 51 51 52 53 53 52 51 51 50 49 46 42 39 37 37 37 38 40 40 35 29 28 33 37 36 34 33 33 34 36 40 42 44 47 50 53 55 57 58 59 61 62 62 62 63 66 69 71 72 72 73 74 76 78
42 43 43 44 44 45 45 46 46 47 47 47 47 48 48 48 48 48 48 48 48 49 49 49 49 49 50 52 53 53 53 52 52 53 53 52 49 48 46 45 44 42 38 35 32 31 32 35 37 35 31 30 38 46 45 39 35 37 39 40 41 42 44 46 49 53 56 58 59 60 62 64 64 64 63 64 67 70 73 74 74 74 75 77 79
44 44 44 45 45 46 47 48 48 48 49 49 49 49 50 50 50 50 50 49 49 49 50 50 50 50 51 53 54 54 54 54 53 54 54 50 45 42 41 40 40 37 34 33 32 29 28 29 32 31 29 35 44 48 43 38 38 41 42 42 42 43 45 48 52 56 59 60 61 63 65 66 66 65 64 64 67 70 74 76 75 75 76 78 80
46 46 46 46 47 48 48 49 50 50 50 49 50 50 51 52 52 53 53 53 51 51 51 51 51 52 53 54 55 55 55 55 53 52 49 44 38 36 36 37 37 35 34 35 34 29 27 34 42 42 37 40 44 42 38 38 41 41 41 42 43 43 44 48 53 58 61 62 64 65 67 68 68 68 66 66 67 71 75 76 76 75 77 78 81
48 48 48 48 49 50 50 50 51 51 51 51 51 51 52 53 54 55 56 56 55 53 53 52 52 53 54 54 55 56 56 55 55 50 43 38 36 35 35 36 36 33 32 34 37 42 50 59 59 50 43 45 47 43 42 43 42 39 41 45 45 43 43 47 53 57 61 64 65 66 68 69 70 70 69 68 69 72 75 76 76 76 77 79 81
51 51 51 51 51 52 52 52 52 52 52 52 52 53 53 54 55 56 57 58 58 57 56 54 53 54 53 53 55 56 56 56 56 52 44 42 41 37 35 36 36 34 33 37 42 50 58 63 60 52 49 50 49 47 48 46 40 41 45 47 45 42 44 49 53 56 61 65 66 67 68 70 71 72 71 70 71 73 76 76 75 76 78 79 81
55 54 55 54 55 55 55 55 55 55 54 54 54 54 54 55 56 57 58 59 60 60 58 56 54 54 54 53 54 57 57 56 56 53 49 47 44 39 37 38 38 35 35 39 42 43 48 57 63 63 61 57 56 59 56 47 43 51 55 49 45 44 47 51 55 58 63 67 68 69 70 70 72 73 73 72 72 74 75 76 75 76 78 80 82
58 58 58 58 58 58 58 58 58 57 57 56 56 55 55 56 57 57 58 60 61 61 60 58 56 55 54 53 54 56 57 56 55 53 49 45 44 43 42 42 41 38 36 40 45 48 53 57 59 60 61 58 57 59 55 49 52 60 56 46 44 48 50 52 56 60 66 69 70 69 70 70 72 73 73 72 72 74 75 75 76 77 79 81 83
61 61 61 61 61 61 61 61 61 60 59 59 58 58 58 57 57 58 59 61 62 62 61 60 58 56 54 53 54 55 56 55 55 54 49 44 43 43 45 46 45 40 36 37 42 48 52 51 49 54 57 54 55 62 64 60 59 55 47 45 49 52 51 54 59 64 69 71 70 68 69 70 71 73 73 72 72 73 75 75 76 78 80 82 83
65 64 65 65 65 65 65 64 64 63 62 61 61 61 60 59 59 59 60 61 62 62 61 60 58 56 54 53 54 54 55 56 57 56 51 46 44 45 47 49 49 45 43 45 48 52 55 55 55 57 56 54 63 74 71 59 53 49 46 48 53 53 53 58 63 68 72 72 69 67 68 70 72 73 72 72 72 73 74 75 77 79 81 82 84
68 68 68 68 68 68 68 68 67 66 65 65 64 64 63 62 61 61 61 62 62 62 61 60 58 54 52 52 53 53 54 57 57 54 50 46 46 48 50 52 55 56 52 49 51 54 55 54 55 56 53 54 66 75 66 52 49 49 48 50 53 55 58 63 67 71 74 72 68 67 68 70 72 72 71 71 72 73 74 76 77 79 81 83 85
71 71 72 72 71 71 71 71 71 70 70 69 69 68 67 66 65 64 63 63 63 63 62 61 58 54 51 52 52 51 53 56 56 51 47 45 47 49 50 55 62 63 53 45 48 51 51 51 52 55 54 53 60 69 68 59 52 49 50 52 55 57 60 64 68 73 74 70 66 67 68 70 71 71 70 70 71 73 75 76 77 79 81 83 85
75 74 74 75 75 75 75 75 75 75 74 74 73 73 72 71 69 68 67 66 65 64 63 61 59 54 51 51 51 49 51 55 53 45 41 44 49 51 50 53 60 61 51 44 48 50 50 50 51 52 54 53 50 52 56 55 53 53 54 55 56 59 63 67 71 73 71 68 66 67 68 69 70 69 69 70 72 74 75 76 78 80 81 83 86
78 77 77 78 78 78 79 79 78 78 78 78 77 76 75 75 73 72 70 68 66 64 63 61 57 52 50 50 49 47 48 50 46 37 34 39 45 47 46 46 51 54 49 42 44 49 52 53 52 52 55 55 52 53 56 58 60 58 56 56 59 63 66 69 71 71 68 67 67 67 67 68 68 69 69 70 73 75 76 76 78 79 81 84 87
79 79 78 79 79 79 80 80 79 79 79 79 79 79 78 77 76 74 72 70 67 65 63 61 56 51 50 49 47 45 44 41 34 26 26 30 32 34 37 37 36 36 35 35 41 49 54 56 58 60 61 59 59 62 61 59 57 56 57 61 64 65 67 69 70 68 66 66 66 66 66 67 68 68 69 71 74 76 76 76 78 80 82 86 88
78 78 78 78 78 77 77 77 77 76 76 76 76 76 77 78 78 76 74 72 68 65 64 61 55 51 49 48 46 44 40 35 31 23 17 19 22 28 31 30 26 22 25 33 41 48 53 56 59 62 60 57 58 61 59 56 56 59 62 64 65 66 68 69 66 65 65 65 65 64 65 66 67 69 70 73 75 76 76 77 79 81 84 87 88
78 78 77 76 75 74 74 74 73 72 72 71 71 72 73 75 77 77 75 73 70 66 63 60 55 51 48 47 46 44 39 37 36 27 11 6 11 15 18 22 24 23 27 34 40 44 50 54 57 61 61 60 62 64 63 61 61 64 66 66 66 68 68 66 64 64 66 65 64 64 65 66 68 70 72 74 75 75 76 78 80 83 86 87 87
78 77 76 75 74 73 73 73 73 73 73 74 74 74 74 73 75 76 76 75 71 67 63 59 55 52 49 46 46 44 42 40 37 29 18 13 12 12 13 18 22 26 32 38 43 48 53 56 59 63 65 66 66 66 65 65 66 68 69 69 69 68 67 65 65 67 67 66 65 65 66 67 70 72 73 74 75 76 77 80 83 85 86 87 87
79 78 77 76 75 75 75 75 74 74 74 75 76 77 75 74 74 75 76 76 73 68 63 59 55 52 49 47 44 43 43 44 41 36 32 32 33 32 29 30 32 34 39 44 49 53 55 56 57 60 62 64 65 65 66 67 68 68 68 69 70 70 69 68 69 70 69 67 66 66 67 70 72 72 73 74 75 77 79 82 84 85 86 86 86
80 79 78 77 77 77 76 74 73 72 72 73 74 74 73 73 74 75 76 77 75 71 65 60 55 52 49 47 45 43 45 50 51 45 43 48 50 44 38 37 40 42 44 47 50 52 52 54 57 62 65 68 69 68 67 66 66 66 67 69 70 70 70 71 73 72 69 67 67 68 70 71 72 73 73 75 76 79 81 83 84 85 85 86 86
80 80 79 78 78 77 77 75 74 74 75 75 74 72 72 71 71 72 74 75 75 73 68 63 58 53 49 48 47 46 48 55 57 53 52 57 57 50 45 43 44 46 46 48 51 54 55 57 60 64 67 69 69 68 67 66 66 66 68 69 70 71 74 75 74 71 69 70 71 72 72 73 73 74 75 76 78 81 83 83 84 85 85 86 86
81 81 80 80 80 80 79 79 77 76 76 74 71 68 68 69 69 70 70 71 72 72 69 65 60 55 51 49 48 49 51 57 61 61 62 65 64 59 56 53 51 49 49 50 53 55 57 59 62 65 67 67 67 67 66 66 67 69 72 74 76 78 78 77 75 74 74 75 75 75 75 75 75 76 77 79 81 82 83 84 85 85 85 85 86
84 83 83 82 83 83 83 83 81 78 76 72 68 64 63 64 65 66 67 69 70 70 69 65 61 56 52 51 50 50 53 58 63 66 70 74 74 70 67 66 65 62 60 60 61 60 60 60 62 64 66 68 69 70 71 73 76 79 81 83 83 82 80 79 79 79 79 78 77 77 77 77 78 79 81 82 82 83 84 85 85 85 85 85 86
87 85 84 84 84 85 85 85 84 80 77 74 71 67 65 63 62 63 64 65 67 67 67 65 62 58 54 53 52 52 55 59 64 69 73 77 79 77 73 71 71 71 70 70 70 70 70 70 71 72 73 74 76 77 79 81 83 84 85 85 85 84 83 83 82 81 80 79 78 79 80 81 82 83 83 84 84 85 86 85 84 84 85 86 86
87 85 84 84 84 85 84 83 81 78 76 74 73 71 69 67 65 63 62 62 63 64 64 64 63 61 58 55 54 54 56 59 65 70 74 78 81 82 81 77 74 73 73 73 73 74 75 76 76 76 76 77 78 79 80 82 83 85 85 85 85 85 85 84 83 82 81 80 81 82 84 85 85 86 86 87 87 86 84 83 83 84 85 86 85
86 84 82 82 82 82 81 79 77 75 73 73 73 71 71 70 69 66 64 62 61 62 62 62 63 63 61 59 57 56 57 60 65 70 75 78 81 83 84 84 82 80 78 78 77 78 79 79 80 80 80 81 81 82 83 85 86 86 87 87 86 86 85 84 83 83 83 84 85 86 87 88 88 89 89 88 86 84 83 83 84 85 85 85 85
85 84 82 81 81 80 79 77 75 73 73 73 74 73 73 72 71 69 66 63 62 61 61 62 62 63 62 61 60 59 60 61 64 69 74 78 81 83 85 86 86 86 85 83 82 81 82 83 84 85 86 86 87 88 88 89 90 90 90 90 89 88 87 87 87 87 88 89 89 90 90 90 89 88 87 85 84 83 83 84 85 86 86 86 85
Wind_Direction
232 234 236 240 243 244 246 247 248 248 249 252 256 260 263 266 270 272 273 275 278 282 286 291 295 299 300 300 303 304 305 307 310 314 318 321 322 323 325 328 329 329 330 331 333 336 338 340 341 341 342 344 345 346 347 346 347 347 347 343 339 334 334 340 344 341 338 338 340 345 347 346 349 355 360 1 1 0 360 0 360 359 358 358 356
234 236 239 241 243 245 246 248 249 251 253 255 257 260 263 265 268 271 272 275 277 280 283 287 290 294 297 297 299 301 302 304 307 311 314 317 319 320 321 323 325 326 326 327 330 333 335 337 338 338 339 340 341 342 343 343 343 344 345 344 340 334 332 336 339 335 333 334 336 341 345 345 345 351 357 359 359 358 358 358 357 357 357 357 356
237 239 241 241 243 244 246 248 250 252 254 256 258 260 262 264 266 268 271 274 277 279 282 284 287 291 294 295 296 298 299 302 305 309 312 314 316 318 319 320 321 322 323 324 326 329 331 333 334 335 335 337 338 339 340 340 340 341 342 342 340 334 330 332 333 332 332 332 333 337 342 343 343 347 353 357 358 357 356 355 355 355 355 355 355
238 240 242 243 244 245 247 249 251 253 255 258 260 262 263 264 266 268 271 274 277 279 280 282 285 288 290 292 294 296 298 301 304 306 309 311 313 316 317 317 318 319 319 320 322 325 327 329 331 332 332 333 335 335 336 337 338 338 339 340 339 334 328 327 328 331 332 330 329 333 338 340 341 344 350 355 356 355 354 353 354 354 354 354 354
238 241 244 245 247 248 249 250 252 254 257 259 261 262 263 265 266 268 271 273 276 278 279 281 283 285 287 289 292 295 297 300 302 304 306 308 310 313 314 315 315 316 317 318 319 322 324 325 327 328 328 329 331 332 333 334 335 336 336 336 336 332 326 322 323 327 329 326 324 327 334 338 339 342 348 353 354 353 352 351 352 353 353 353 353
238 241 244 246 248 249 250 252 253 255 258 259 260 262 263 265 266 268 269 272 274 276 279 281 282 283 285 288 291 294 296 298 300 303 304 306 308 310 312 313 313 314 315 315 317 319 321 322 324 324 324 326 328 329 329 330 332 333 334 333 332 329 324 320 319 322 324 321 320 323 329 335 337 341 347 351 352 352 350 350 350 351 352 352 352
239 240 242 245 247 249 250 252 254 256 258 259 261 262 264 265 267 268 269 271 273 276 279 280 281 282 284 287 289 292 294 296 298 301 303 305 306 307 309 310 311 311 312 313 314 316 318 319 321 321 321 323 324 325 327 328 329 330 331 330 329 326 323 319 318 318 317 318 319 320 326 332 336 340 345 349 351 350 349 349 348 350 351 352 351
240 241 242 244 245 247 249 252 254 256 258 260 262 263 265 267 268 269 270 271 274 276 278 279 280 282 283 286 288 290 292 294 296 299 302 302 303 304 306 307 308 309 310 310 312 313 315 316 318 318 318 320 321 322 324 324 326 327 328 327 326 325 321 318 316 314 312 315 318 319 325 331 335 339 344 348 349 348 348 348 347 348 350 351 351
241 242 243 245 246 248 250 252 254 255 257 259 261 263 265 267 268 270 271 272 273 275 277 278 279 280 282 285 287 289 291 292 295 298 299 300 300 302 304 305 306 307 307 307 309 310 312 313 314 314 315 317 318 320 320 321 322 323 324 325 324 323 320 316 314 311 309 313 315 317 323 330 333 338 342 346 347 347 346 346 346 347 348 350 351
243 245 246 247 249 250 251 252 253 255 256 258 260 262 264 266 267 268 269 270 272 273 275 276 277 279 282 284 286 287 289 291 294 296 296 297 298 300 302 303 304 305 305 305 306 307 309 310 311 312 313 314 316 317 317 318 319 320 322 323 322 321 319 316 312 309 309 311 313 314 322 328 331 336 341 344 345 345 345 345 345 345 347 348 351
246 247 249 250 252 252 253 254 255 256 257 259 260 262 264 265 266 267 268 270 271 272 273 274 277 279 281 283 284 286 288 290 292 293 294 295 297 298 300 301 302 303 303 303 303 305 306 308 309 309 310 312 314 315 315 315 316 317 319 321 319 317 317 316 313 310 309 311 311 311 319 326 330 335 339 343 344 343 343 344 344 344 345 347 351
248 249 250 252 253 254 255 256 257 258 259 260 262 263 264 265 266 267 269 270 272 273 274 276 278 280 281 283 284 286 288 289 290 291 292 293 295 296 298 299 300 301 301 301 301 303 305 306 306 307 308 310 312 312 312 312 314 315 317 319 317 314 313 314 311 308 308 309 308 309 318 325 329 333 338 340 341 341 341 343 343 343 344 347 350
250 251 252 253 254 254 256 257 258 259 261 262 263 264 265 267 268 269 270 271 273 274 276 277 279 280 282 283 284 286 288 288 288 289 290 292 293 294 295 297 298 298 298 299 300 302 303 304 304 304 306 308 309 310 310 310 311 313 314 316 314 310 309 309 307 306 306 306 305 308 317 324 328 332 336 337 339 339 340 342 343 343 344 347 349
251 252 253 254 255 256 257 259 260 261 262 264 265 266 267 268 270 271 272 273 274 276 277 278 279 280 281 283 285 286 287 287 287 287 288 290 291 293 294 294 295 295 296 298 299 301 302 302 302 302 304 306 307 307 307 308 310 311 312 313 311 307 305 306 305 305 305 304 303 307 316 323 328 331 333 335 336 338 339 341 343 343 344 347 347
252 253 254 255 256 257 258 260 261 263 264 265 266 267 269 270 271 272 274 275 276 277 278 278 279 280 281 283 284 284 284 284 285 286 287 289 290 291 292 293 293 293 295 296 298 299 299 299 299 300 302 303 303 304 305 306 308 310 310 309 307 304 302 304 305 306 305 302 302 306 314 322 326 329 331 333 334 336 338 341 343 343 345 346 346
253 254 255 255 256 257 258 259 261 262 264 265 267 268 268 269 270 271 272 273 275 276 277 278 279 280 281 282 282 282 283 283 285 286 287 288 289 290 290 290 291 292 293 294 296 296 296 297 298 298 299 300 301 302 303 305 307 308 307 306 304 301 301 303 305 305 304 302 302 306 312 319 324 328 330 332 333 335 337 340 343 344 344 344 344
254 255 256 257 258 258 259 261 262 263 265 266 266 267 267 268 269 270 271 273 274 275 276 277 278 279 280 280 281 282 283 284 285 286 286 287 288 288 288 288 289 290 292 293 293 294 294 295 296 296 297 298 298 300 302 305 305 304 302 302 301 298 299 303 304 304 304 303 302 304 309 316 322 326 329 330 331 333 336 340 342 343 343 343 344
256 257 257 258 259 260 261 262 263 264 265 265 265 266 267 268 269 270 271 272 273 274 275 276 277 278 278 279 280 281 282 284 285 285 286 287 287 286 286 287 288 289 290 290 291 292 293 293 294 294 295 296 297 300 303 304 302 300 298 298 297 296 298 302 303 303 303 303 303 304 308 314 320 324 328 329 330 332 336 339 341 341 342 342 343
257 258 259 259 260 261 262 262 263 264 265 266 267 267 268 269 270 270 271 272 273 274 275 276 276 277 278 279 280 281 282 283 284 284 285 286 286 286 286 287 287 288 288 288 289 290 290 291 291 292 293 295 298 301 303 301 299 297 295 295 294 293 297 300 301 301 302 303 304 305 309 314 318 322 326 328 328 331 335 337 339 340 340 341 342
259 260 261 261 262 263 263 264 264 265 266 267 269 270 270 271 272 272 273 273 274 275 275 276 277 279 280 281 281 282 283 283 283 283 283 284 284 285 285 286 286 287 288 288 288 288 289 290 291 292 294 297 300 301 300 299 297 294 293 292 292 293 297 299 299 300 303 306 308 309 311 314 317 320 324 327 329 331 334 336 337 338 339 339 340
261 263 263 264 264 265 266 267 267 268 268 269 270 270 272 274 275 275 276 277 277 278 278 279 280 281 282 282 283 283 283 283 283 284 284 284 284 284 285 286 286 286 287 287 287 288 289 291 292 294 296 299 302 302 299 296 293 291 291 291 292 295 298 299 300 303 307 309 311 311 311 313 316 319 323 327 329 332 333 333 335 336 337 337 337
265 266 267 267 267 267 268 269 270 271 272 272 271 271 273 276 277 277 278 279 280 281 281 281 282 282 282 283 284 284 284 284 285 285 287 287 288 288 287 285 284 283 284 285 286 289 291 293 295 297 298 300 303 303 300 296 293 291 291 292 294 298 302 304 306 309 311 311 312 312 312 313 315 318 323 327 329 331 332 332 333 334 335 335 336
269 270 271 272 272 272 272 272 273 274 274 273 273 273 274 275 276 276 277 277 279 280 281 282 282 283 284 284 284 284 284 285 285 286 288 288 289 290 289 286 283 280 280 281 284 287 291 295 296 296 297 299 302 304 303 302 299 295 292 293 297 303 307 308 310 312 312 312 314 313 312 313 315 318 322 326 328 329 330 331 331 332 333 334 335
268 269 272 273 274 275 275 276 276 276 277 277 277 276 277 277 277 278 279 279 281 282 282 283 283 284 285 285 284 283 283 283 285 286 287 288 288 288 288 286 284 281 280 281 284 288 294 297 296 295 294 293 295 303 308 307 303 297 294 297 302 307 309 308 309 310 311 312 314 315 314 313 314 318 321 323 325 327 328 329 330 330 331 333 334
265 267 269 271 273 274 275 276 277 277 278 279 279 279 280 281 282 283 283 284 285 284 284 285 285 286 286 286 285 284 283 284 286 287 288 288 287 286 285 283 281 280 282 284 287 292 299 302 302 301 298 289 285 294 304 307 303 297 296 298 302 305 307 307 307 308 310 312 313 315 315 315 315 317 320 321 322 324 326 327 328 329 330 331 333
263 265 266 268 270 271 272 273 274 276 277 278 279 280 281 282 284 284 285 286 285 285 285 286 285 286 286 285 285 285 285 287 289 290 290 289 288 286 284 280 278 279 280 281 286 293 298 302 305 304 298 289 287 290 296 303 302 296 294 294 295 298 303 306 307 308 309 310 312 313 315 316 316 317 318 318 319 322 324 325 327 328 329 330 332
262 263 265 266 267 268 270 271 272 274 275 277 278 279 281 282 283 284 285 286 286 287 287 286 286 286 286 286 286 286 287 288 289 289 289 288 287 287 286 282 280 279 277 279 283 286 286 292 302 305 300 297 297 295 295 300 298 291 287 287 288 293 299 304 307 308 308 309 311 313 315 317 317 316 315 315 317 319 321 323 325 327 328 329 331
262 263 264 266 267 268 269 269 270 272 273 274 276 277 279 281 283 284 285 287 288 289 289 289 288 287 287 287 287 286 287 288 288 287 286 285 286 286 283 279 277 275 278 283 285 282 278 287 299 303 301 302 304 298 292 293 291 283 277 279 284 289 296 301 304 307 308 309 310 312 314 315 315 315 314 313 315 316 319 322 324 326 327 329 330
263 264 265 266 267 269 269 270 271 272 273 274 275 276 277 279 281 282 284 286 288 289 290 290 289 286 286 286 286 286 288 290 290 287 283 283 287 284 279 277 274 273 279 287 289 289 288 291 296 298 297 301 303 295 284 284 287 282 277 279 283 288 294 299 302 305 306 307 308 309 310 312 313 313 312 312 313 314 317 321 323 325 326 328 329
266 266 267 268 268 269 270 271 272 272 273 274 275 276 277 278 279 280 282 283 286 287 288 289 288 286 284 284 285 286 287 289 289 286 282 285 288 283 275 274 275 277 282 285 284 284 284 286 289 292 294 298 299 293 282 278 286 297 295 286 283 287 293 297 301 304 305 305 305 307 308 310 311 311 311 311 311 312 317 320 322 323 326 327 328
267 268 269 270 270 271 271 272 272 273 274 274 275 276 277 277 278 278 279 280 282 285 287 288 289 287 284 283 284 285 285 285 285 283 282 286 287 280 275 274 273 274 279 281 278 275 275 277 283 289 293 292 291 291 285 273 280 300 301 290 283 287 293 297 300 302 304 303 303 305 307 308 309 309 309 309 309 311 316 320 321 323 325 326 327
267 269 270 271 272 273 273 273 273 274 274 274 275 275 276 276 277 277 278 279 280 283 285 287 288 287 285 282 281 282 284 284 282 279 281 283 280 277 278 276 269 265 271 278 280 279 278 280 285 290 291 284 279 284 284 276 283 296 295 284 285 292 295 297 299 301 302 302 301 303 305 306 306 307 307 308 309 311 316 318 320 322 324 325 326
267 268 270 271 272 272 273 273 273 273 273 274 274 274 275 276 277 277 277 278 279 281 283 285 286 286 284 281 279 281 284 285 282 280 280 278 273 274 279 278 268 262 268 280 283 279 277 280 283 284 283 277 274 280 283 281 284 290 286 280 288 295 296 297 299 299 300 301 301 302 304 304 304 305 306 307 309 311 315 317 319 321 323 323 324
267 268 269 270 270 271 271 272 272 272 272 273 273 273 274 275 276 277 277 277 278 280 282 283 285 284 282 280 279 280 282 283 281 280 278 276 273 274 278 276 269 266 275 285 284 276 273 277 280 278 278 279 280 283 285 282 279 281 285 284 286 290 293 295 296 296 297 299 301 302 302 302 302 303 304 307 309 311 314 316 318 320 321 322 322
267 268 269 269 269 270 270 271 271 271 271 272 272 273 273 274 275 276 277 277 279 280 281 283 283 281 279 278 277 279 281 280 278 276 276 276 276 277 280 281 278 277 280 282 278 272 269 271 273 270 267 265 265 266 270 274 274 278 285 285 283 286 290 291 291 293 295 298 301 301 300 300 301 302 304 306 308 310 314 316 318 319 320 320 321
267 268 269 269 269 270 270 271 271 272 272 272 273 273 273 273 274 275 276 277 278 279 280 282 282 281 279 277 277 279 281 279 275 274 274 274 274 275 278 279 276 276 274 267 262 262 262 261 264 262 258 254 251 251 256 265 271 275 281 282 281 284 287 286 288 291 295 298 300 299 298 299 300 302 304 306 307 310 314 316 317 317 318 319 319
267 267 268 269 269 270 270 270 271 271 272 272 272 272 272 273 273 274 274 275 276 277 278 280 280 280 278 276 276 279 281 278 276 274 273 275 279 279 277 271 267 267 267 259 251 251 254 258 259 255 252 253 250 244 248 257 265 271 277 278 278 280 283 285 288 291 294 297 299 298 297 298 300 301 304 305 307 310 313 315 315 316 316 317 317
267 267 267 268 268 268 269 269 269 270 270 270 271 271 271 271 272 272 273 274 275 276 277 278 278 278 276 274 274 277 278 278 278 276 277 282 284 280 274 267 263 263 264 256 244 242 249 256 254 248 247 249 244 238 243 255 262 268 272 273 273 276 281 285 287 290 292 296 296 296 296 298 299 301 303 305 307 310 312 313 313 314 314 315 316
265 266 266 267 268 268 268 268 268 268 269 269 269 269 269 270 270 270 271 272 274 275 276 277 277 275 273 271 271 273 275 274 270 274 288 296 294 285 277 270 263 260 254 240 231 235 243 247 246 246 250 249 242 239 246 255 259 263 266 268 271 276 282 284 286 288 291 294 294 294 296 297 298 300 303 305 306 309 310 311 311 312 312 313 315
263 264 265 266 267 268 268 268 269 269 270 270 270 270 269 268 268 268 269 271 272 274 275 276 276 274 271 268 267 269 268 260 252 257 290 309 304 294 279 259 241 231 224 219 222 231 239 242 245 249 252 249 241 240 246 252 255 259 263 266 272 278 281 282 284 287 290 293 294 294 295 296 297 300 303 304 305 307 308 309 309 310 311 313 315
263 264 265 266 268 269 269 270 271 272 272 273 273 273 272 270 267 266 267 268 270 272 273 274 275 273 269 265 264 263 258 249 246 248 261 296 296 286 263 238 227 224 223 224 227 234 240 246 252 255 253 248 242 243 248 253 257 261 265 269 273 277 279 280 283 287 290 292 293 294 295 296 297 300 302 303 304 305 306 306 307 309 310 313 315
264 265 266 268 269 270 271 272 274 275 276 277 278 277 276 274 270 267 266 266 267 269 271 271 272 271 267 262 261 259 251 243 242 239 218 185 169 167 186 212 224 226 226 228 231 235 242 250 256 255 250 246 244 247 252 256 261 265 268 270 272 275 277 279 283 286 289 291 292 293 294 295 297 299 300 301 302 303 304 305 306 308 310 313 315
265 266 267 269 270 271 272 274 276 279 281 282 281 278 276 276 274 270 267 265 266 267 268 269 269 269 265 260 257 254 244 234 232 233 221 199 182 175 185 205 217 219 221 226 231 237 243 249 251 249 246 245 248 252 255 258 262 265 267 269 272 274 275 277 280 284 288 290 291 292 293 295 297 298 299 299 300 301 302 304 306 308 310 312 314
266 267 268 270 271 272 273 276 279 282 285 287 285 280 276 275 274 272 269 267 266 266 267 267 266 266 264 258 254 251 242 232 231 230 217 201 194 197 207 219 225 228 230 232 234 237 241 243 244 244 245 248 250 252 254 258 261 264 266 269 271 272 272 275 279 284 287 289 290 292 293 294 295 296 296 297 298 300 302 304 306 308 310 312 314
265 266 268 270 271 272 274 277 280 283 287 289 287 282 277 275 274 272 270 269 268 267 267 266 264 263 262 257 253 249 243 238 236 229 212 201 205 218 231 236 236 238 240 241 241 240 242 243 243 242 243 246 248 250 253 257 260 262 264 267 269 271 274 278 282 285 287 289 290 291 291 292 293 294 295 296 298 300 301 303 305 307 310 312 315
266 266 267 269 271 273 275 278 281 283 286 288 287 284 280 277 275 273 271 270 269 268 267 265 263 261 260 257 253 248 244 241 240 233 223 219 223 231 239 242 243 244 246 249 249 248 247 247 244 242 242 244 246 248 252 255 258 262 265 269 272 275 279 282 284 286 287 287 288 289 290 291 292 293 295 296 298 299 301 303 305 308 311 313 314
269 269 269 270 272 274 276 279 281 283 284 285 286 287 286 282 278 275 273 271 270 269 267 264 262 260 258 256 253 248 244 243 242 240 239 238 239 240 242 246 248 248 248 249 249 249 249 248 246 245 246 247 249 252 255 259 262 265 269 272 275 278 280 282 283 283 284 285 286 287 288 290 292 293 295 296 298 299 301 304 306 309 311 312 313
270 271 272 273 274 276 277 279 281 282 282 282 283 286 289 288 284 280 276 273 271 270 268 265 262 260 258 256 252 249 245 243 243 244 247 249 250 250 250 251 251 251 252 253 252 252 252 253 253 254 254 255 257 259 261 262 265 267 270 273 275 277 278 279 280 281 282 284 286 287 289 290 292 293 295 296 298 300 302 304 307 308 309 310 311
270 271 272 273 274 276 277 278 279 280 280 279 280 283 287 289 288 284 279 276 273 272 270 268 265 262 259 257 254 250 247 245 245 246 248 251 253 255 255 255 255 254 254 254 255 255 256 257 257 258 259 259 259 260 261 263 265 267 269 271 272 274 276 278 279 281 283 285 286 288 289 290 292 293 294 296 298 301 303 304 306 307 308 309 309
272 272 273 273 274 275 276 277 277 277 277 277 278 281 284 287 286 283 280 276 274 272 271 269 268 265 262 259 256 253 250 248 247 248 249 251 253 255 257 258 259 259 258 257 257 257 258 258 259 259 259 259 259 260 261 263 264 266 268 270 273 275 277 279 281 283 284 285 286 288 289 290 292 293 295 297 299 301 302 303 304 305 306 307 308
272 272 273 273 274 274 275 275 275 275 275 275 276 279 283 284 283 280 277 274 272 271 269 269 268 267 264 261 258 256 253 250 249 249 250 251 253 255 257 259 260 262 262 262 262 262 262 261 261 262 262 262 263 264 265 266 268 270 271 273 275 277 279 280 282 283 284 285 286 288 289 291 293 294 296 297 299 300 301 302 303 304 304 306 307
Height
10973 10975 10976 10977 10978 10979 10980 10981 10983 10984 10984 10985 10985 10986 10986 10986 10986 10986 10986 10986 10986 10986 10986 10986 10985 10985 10984 10984 10983 10983 10982 10981 10980 10980 10979 10978 10977 10975 10974 10973 10971 10969 10967 10965 10964 10962 10961 10959 10956 10954 10952 10950 10948 10946 10944 10941 10939 10936 10934 10931 10929 10927 10924 10922 10920 10918 10916 10914 10913 10911 10909 10907 10905 10902 10899 10896 10893 10890 10886 10883 10881 10879 10876 10873 10870
10970 10972 10973 10975 10976 10977 10978 10979 10980 10981 10982 10983 10984 10984 10984 10984 10984 10984 10983 10984 10984 10984 10984 10984 10983 10982 10982 10981 10981 10980 10979 10978 10977 10977 10976 10975 10975 10973 10971 10970 10969 10966 10964 10962 10961 10959 10958 10956 10954 10952 10949 10947 10945 10943 10941 10938 10936 10933 10931 10928 10926 10924 10921 10919 10917 10915 10913 10911 10909 10907 10905 10903 10900 10897 10894 10891 10889 10886 10882 10879 10877 10875 10872 10869 10865
10968 10969 10970 10972 10973 10974 10975 10976 10977 10978 10979 10980 10981 10982 10982 10982 10982 10981 10981 10981 10981 10982 10982 10981 10981 10980 10979 10979 10978 10977 10976 10975 10974 10973 10973 10972 10972 10971 10969 10967 10966 10964 10962 10960 10958 10956 10954 10953 10951 10949 10947 10944 10942 10940 10938 10935 10932 10930 10928 10926 10923 10921 10919 10916 10914 10912 10910 10907 10905 10904 10902 10899 10896 10893 10890 10887 10884 10881 10878 10875 10873 10870 10867 10864 10860
10965 10966 10967 10969 10970 10971 10972 10973 10974 10975 10976 10977 10978 10979 10979 10979 10978 10978 10978 10978 10978 10979 10979 10978 10978 10977 10977 10976 10975 10974 10973 10972 10971 10970 10969 10969 10968 10967 10966 10964 10962 10961 10959 10957 10955 10953 10951 10949 10948 10946 10943 10941 10939 10937 10934 10932 10929 10927 10924 10922 10920 10918 10916 10914 10912 10910 10908 10905 10902 10900 10898 10895 10892 10889 10886 10883 10880 10877 10874 10871 10869 10866 10863 10859 10855
10961 10962 10963 10965 10967 10967 10969 10970 10971 10972 10973 10974 10974 10975 10975 10975 10975 10975 10975 10975 10975 10975 10975 10975 10974 10974 10973 10973 10971 10971 10970 10969 10968 10967 10965 10965 10964 10964 10962 10960 10959 10957 10955 10953 10951 10950 10948 10946 10944 10942 10940 10938 10936 10933 10931 10929 10926 10924 10922 10919 10917 10914 10912 10911 10909 10908 10906 10904 10901 10898 10895 10893 10889 10886 10883 10880 10877 10874 10871 10868 10865 10862 10859 10855 10851
10957 10958 10959 10961 10962 10963 10965 10966 10968 10969 10970 10970 10971 10971 10971 10972 10972 10972 10972 10972 10972 10971 10971 10971 10971 10970 10970 10969 10968 10967 10966 10965 10965 10963 10962 10961 10960 10959 10958 10956 10955 10953 10951 10949 10947 10946 10944 10942 10940 10938 10936 10934 10932 10930 10928 10925 10923 10921 10918 10916 10913 10911 10909 10907 10906 10905 10903 10902 10899 10897 10894 10891 10888 10885 10882 10878 10875 10872 10869 10866 10863 10860 10857 10853 10848
10953 10953 10955 10956 10957 10959 10961 10962 10964 10965 10965 10966 10966 10967 10967 10968 10968 10969 10969 10968 10968 10968 10967 10967 10967 10966 10966 10965 10965 10964 10962 10961 10960 10960 10958 10957 10955 10954 10954 10952 10950 10948 10946 10944 10942 10941 10940 10938 10936 10934 10932 10930 10928 10926 10924 10921 10919 10917 10915 10912 10910 10907 10905 10903 10902 10901 10899 10898 10896 10894 10892 10889 10886 10883 10880 10876 10873 10870 10867 10865 10862 10858 10854 10850 10845
10948 10949 10951 10952 10952 10954 10956 10958 10960 10961 10961 10961 10962 10963 10963 10963 10964 10964 10964 10964 10964 10964 10963 10963 10962 10962 10962 10961 10961 10960 10958 10956 10956 10956 10955 10953 10951 10949 10949 10948 10946 10944 10942 10940 10938 10937 10935 10934 10932 10930 10928 10926 10924 10922 10919 10917 10915 10912 10910 10908 10906 10903 10901 10900 10898 10896 10895 10894 10893 10891 10888 10886 10883 10880 10877 10873 10870 10867 10864 10861 10858 10855 10851 10846 10840
10944 10946 10947 10947 10948 10951 10953 10954 10955 10956 10956 10957 10957 10958 10958 10959 10959 10959 10960 10960 10959 10959 10959 10958 10958 10957 10957 10957 10957 10956 10954 10952 10951 10951 10951 10949 10946 10945 10943 10943 10941 10940 10937 10935 10933 10932 10931 10929 10927 10926 10924 10922 10920 10918 10915 10913 10911 10908 10906 10904 10902 10899 10897 10896 10894 10892 10890 10889 10888 10886 10883 10881 10879 10876 10873 10870 10867 10864 10860 10856 10853 10849 10845 10841 10834
10941 10942 10942 10943 10945 10948 10949 10950 10950 10951 10951 10952 10952 10953 10953 10954 10954 10954 10955 10955 10955 10955 10954 10953 10953 10953 10952 10952 10952 10951 10950 10948 10946 10946 10946 10944 10942 10940 10939 10937 10936 10935 10933 10930 10928 10927 10926 10925 10923 10921 10920 10918 10916 10914 10911 10909 10906 10904 10902 10900 10898 10896 10893 10891 10889 10888 10886 10884 10883 10881 10878 10876 10874 10872 10869 10865 10862 10860 10856 10852 10848 10844 10839 10834 10827
10936 10937 10937 10939 10942 10943 10944 10944 10945 10946 10946 10947 10947 10948 10949 10949 10949 10949 10949 10949 10950 10950 10949 10948 10948 10948 10947 10947 10946 10946 10945 10944 10942 10941 10940 10939 10938 10936 10934 10932 10931 10929 10927 10925 10923 10922 10921 10920 10918 10916 10914 10914 10912 10910 10907 10904 10902 10900 10898 10896 10894 10892 10889 10887 10884 10882 10880 10879 10878 10876 10874 10872 10870 10867 10864 10861 10858 10856 10852 10848 10844 10839 10834 10827 10820
10930 10931 10933 10935 10936 10937 10938 10939 10940 10940 10941 10942 10942 10943 10943 10943 10943 10944 10944 10944 10945 10944 10943 10944 10944 10943 10942 10941 10941 10940 10940 10939 10937 10936 10935 10934 10933 10932 10930 10928 10926 10924 10921 10919 10918 10917 10916 10914 10912 10910 10909 10908 10908 10906 10903 10900 10898 10895 10894 10892 10889 10887 10885 10883 10880 10878 10876 10874 10873 10872 10870 10868 10865 10862 10859 10856 10855 10852 10848 10844 10839 10834 10829 10821 10813
10925 10926 10928 10929 10930 10931 10932 10933 10934 10935 10936 10937 10938 10938 10938 10937 10937 10938 10938 10939 10939 10938 10938 10938 10938 10937 10937 10936 10935 10935 10934 10933 10931 10930 10930 10929 10928 10927 10926 10924 10921 10918 10915 10914 10913 10912 10911 10909 10907 10905 10904 10903 10902 10900 10898 10896 10894 10891 10889 10888 10885 10882 10881 10879 10876 10874 10872 10870 10869 10867 10866 10864 10861 10858 10854 10852 10850 10847 10844 10839 10834 10828 10822 10814 10806
10920 10921 10922 10923 10924 10926 10927 10928 10928 10929 10931 10932 10933 10933 10932 10931 10931 10931 10932 10933 10933 10932 10933 10933 10932 10931 10931 10930 10930 10929 10928 10926 10925 10924 10924 10923 10923 10922 10921 10918 10915 10912 10910 10909 10908 10907 10905 10903 10901 10899 10898 10898 10896 10894 10892 10891 10889 10887 10885 10883 10880 10878 10876 10874 10872 10870 10867 10866 10865 10863 10862 10860 10857 10854 10850 10848 10845 10843 10838 10834 10828 10822 10815 10807 10801
10914 10915 10916 10917 10918 10920 10921 10922 10923 10924 10925 10926 10927 10927 10927 10926 10926 10926 10926 10927 10927 10927 10926 10926 10925 10925 10925 10925 10924 10923 10921 10919 10918 10917 10917 10917 10917 10916 10915 10913 10909 10907 10904 10903 10902 10901 10899 10896 10894 10893 10893 10892 10890 10888 10887 10885 10884 10882 10879 10877 10875 10873 10871 10870 10867 10865 10863 10861 10860 10859 10858 10856 10853 10850 10847 10844 10841 10838 10833 10828 10823 10816 10809 10802 10796
10908 10908 10909 10910 10912 10914 10915 10916 10917 10918 10919 10920 10921 10921 10920 10920 10920 10921 10921 10921 10921 10921 10920 10919 10918 10918 10918 10918 10918 10916 10915 10913 10911 10911 10910 10910 10910 10910 10908 10906 10904 10901 10898 10897 10896 10894 10892 10890 10888 10886 10886 10885 10884 10882 10881 10880 10878 10877 10874 10872 10870 10868 10866 10865 10862 10860 10858 10857 10856 10855 10853 10851 10848 10846 10843 10840 10836 10833 10828 10822 10816 10809 10803 10797 10791
10901 10901 10903 10904 10906 10907 10908 10910 10911 10912 10913 10914 10914 10913 10913 10913 10914 10915 10916 10915 10915 10914 10913 10912 10912 10912 10911 10910 10910 10910 10908 10906 10905 10903 10902 10902 10902 10902 10901 10899 10897 10895 10893 10890 10888 10886 10885 10883 10880 10878 10878 10878 10876 10876 10876 10874 10872 10870 10869 10866 10864 10862 10861 10859 10857 10855 10854 10852 10851 10850 10848 10846 10844 10841 10838 10835 10831 10827 10821 10815 10809 10803 10797 10791 10785
10894 10895 10896 10898 10899 10900 10902 10903 10903 10904 10905 10906 10905 10905 10905 10906 10907 10908 10909 10908 10908 10907 10906 10906 10905 10904 10903 10903 10903 10903 10902 10900 10897 10894 10892 10892 10893 10893 10892 10891 10890 10889 10886 10883 10881 10880 10878 10876 10873 10870 10871 10871 10870 10870 10871 10869 10865 10864 10863 10861 10859 10857 10856 10854 10852 10850 10849 10848 10846 10845 10843 10841 10839 10836 10833 10829 10825 10820 10815 10809 10803 10797 10791 10786 10779
10887 10888 10889 10891 10892 10893 10895 10895 10895 10896 10897 10897 10897 10897 10898 10898 10899 10901 10901 10901 10900 10900 10900 10899 10897 10896 10896 10896 10896 10895 10894 10893 10891 10887 10884 10882 10881 10882 10882 10882 10882 10881 10879 10876 10874 10873 10871 10869 10866 10864 10864 10865 10864 10865 10865 10862 10859 10858 10857 10856 10854 10852 10851 10850 10847 10846 10845 10844 10842 10840 10838 10836 10833 10831 10827 10823 10818 10813 10807 10802 10797 10791 10785 10780 10774
10881 10882 10883 10885 10886 10887 10887 10888 10888 10889 10890 10890 10891 10891 10890 10890 10891 10892 10893 10893 10893 10893 10893 10891 10890 10888 10888 10888 10888 10887 10885 10884 10882 10880 10877 10875 10873 10872 10873 10874 10873 10872 10871 10869 10867 10865 10864 10863 10861 10859 10859 10859 10859 10859 10858 10856 10854 10852 10851 10850 10849 10848 10846 10845 10843 10841 10840 10839 10838 10835 10833 10831 10828 10825 10821 10817 10812 10806 10800 10795 10790 10784 10779 10773 10768
10875 10876 10877 10878 10880 10881 10881 10881 10881 10882 10884 10884 10884 10884 10884 10884 10884 10884 10884 10884 10884 10884 10884 10884 10883 10881 10880 10879 10879 10878 10876 10875 10874 10871 10868 10867 10865 10864 10865 10865 10864 10864 10864 10862 10859 10858 10858 10858 10857 10855 10854 10854 10854 10853 10852 10850 10849 10848 10846 10845 10844 10843 10841 10840 10838 10837 10836 10834 10833 10830 10827 10825 10822 10818 10815 10810 10805 10800 10794 10789 10783 10778 10773 10767 10762
10870 10870 10871 10872 10873 10874 10875 10875 10875 10876 10877 10877 10878 10878 10878 10878 10878 10877 10877 10877 10877 10877 10877 10876 10876 10875 10873 10872 10871 10869 10868 10867 10866 10864 10861 10859 10857 10856 10856 10856 10855 10856 10856 10854 10853 10853 10853 10853 10852 10850 10849 10849 10849 10848 10847 10846 10844 10843 10842 10841 10840 10838 10837 10835 10834 10832 10830 10829 10827 10824 10821 10819 10816 10812 10808 10803 10798 10794 10789 10784 10778 10773 10768 10763 10757
10864 10865 10865 10866 10867 10868 10869 10869 10869 10870 10870 10871 10872 10872 10872 10872 10872 10871 10871 10871 10871 10870 10869 10868 10868 10867 10867 10866 10864 10862 10860 10859 10859 10857 10855 10853 10851 10849 10847 10845 10845 10846 10847 10847 10847 10848 10849 10848 10847 10845 10844 10844 10844 10844 10843 10842 10840 10838 10837 10836 10835 10834 10832 10831 10828 10826 10825 10823 10820 10818 10815 10812 10809 10806 10801 10796 10792 10788 10783 10779 10773 10768 10763 10758 10753
10859 10859 10860 10861 10861 10862 10863 10863 10864 10864 10864 10864 10865 10865 10864 10864 10864 10864 10864 10864 10864 10863 10862 10861 10861 10860 10859 10858 10856 10854 10853 10854 10854 10852 10849 10847 10846 10843 10841 10838 10837 10837 10839 10841 10842 10842 10842 10842 10841 10839 10839 10840 10840 10840 10839 10838 10836 10834 10833 10831 10830 10829 10828 10826 10823 10821 10819 10816 10814 10812 10809 10806 10802 10799 10794 10790 10785 10781 10778 10773 10768 10764 10759 10753 10748
10853 10854 10854 10855 10856 10857 10857 10858 10858 10858 10858 10858 10858 10857 10857 10857 10857 10856 10856 10856 10855 10854 10853 10853 10854 10853 10852 10850 10848 10846 10846 10848 10848 10846 10843 10841 10839 10838 10836 10834 10832 10832 10834 10836 10837 10837 10836 10836 10835 10833 10834 10836 10835 10834 10833 10832 10831 10829 10828 10827 10825 10824 10823 10821 10818 10815 10813 10810 10808 10806 10803 10800 10796 10792 10787 10783 10779 10776 10772 10767 10763 10759 10754 10749 10744
10848 10848 10849 10849 10850 10850 10851 10852 10852 10852 10852 10852 10852 10851 10850 10850 10850 10849 10849 10849 10848 10848 10847 10846 10847 10846 10844 10842 10840 10839 10840 10840 10840 10838 10835 10833 10832 10831 10831 10830 10829 10829 10830 10831 10832 10833 10832 10831 10831 10830 10830 10831 10830 10827 10826 10826 10825 10823 10822 10820 10819 10818 10817 10815 10812 10810 10807 10804 10802 10800 10797 10794 10790 10785 10781 10778 10774 10770 10766 10762 10758 10753 10749 10744 10739
10842 10842 10843 10844 10844 10844 10845 10845 10845 10846 10846 10845 10845 10845 10844 10844 10844 10843 10842 10842 10842 10841 10840 10839 10839 10838 10836 10835 10834 10833 10833 10833 10833 10831 10828 10827 10827 10827 10827 10826 10824 10824 10824 10825 10826 10828 10828 10827 10827 10828 10828 10827 10824 10822 10820 10819 10817 10814 10813 10812 10811 10810 10808 10808 10806 10804 10801 10797 10795 10793 10791 10787 10783 10779 10776 10773 10769 10766 10761 10757 10753 10749 10744 10738 10733
10836 10836 10837 10838 10838 10838 10838 10838 10838 10839 10839 10839 10839 10838 10838 10837 10837 10836 10835 10834 10835 10835 10833 10832 10831 10829 10828 10828 10827 10826 10826 10825 10824 10823 10822 10822 10823 10823 10822 10821 10820 10819 10819 10818 10819 10821 10822 10821 10822 10824 10824 10822 10820 10817 10814 10811 10809 10808 10807 10806 10805 10803 10801 10799 10799 10798 10795 10791 10789 10786 10784 10781 10778 10775 10772 10769 10765 10761 10757 10753 10748 10744 10739 10734 10728
10829 10830 10830 10831 10831 10831 10831 10832 10832 10832 10832 10832 10832 10832 10831 10831 10831 10829 10828 10827 10828 10828 10827 10826 10824 10822 10822 10822 10820 10819 10819 10818 10816 10815 10816 10817 10818 10818 10817 10816 10815 10815 10814 10812 10813 10814 10813 10811 10814 10816 10816 10815 10814 10812 10809 10805 10803 10802 10802 10801 10800 10797 10795 10794 10792 10790 10789 10786 10784 10782 10779 10777 10774 10770 10767 10764 10760 10756 10753 10748 10743 10739 10734 10729 10724
10821 10822 10823 10823 10824 10824 10824 10825 10825 10825 10825 10825 10825 10825 10824 10824 10824 10823 10822 10821 10820 10820 10819 10819 10817 10815 10815 10816 10814 10812 10813 10813 10811 10809 10811 10812 10813 10812 10812 10811 10810 10809 10808 10806 10809 10812 10808 10804 10804 10807 10809 10809 10808 10806 10803 10800 10797 10795 10794 10795 10794 10792 10790 10789 10787 10784 10782 10781 10779 10777 10775 10772 10769 10765 10762 10759 10756 10752 10748 10744 10738 10733 10728 10724 10719
10814 10815 10816 10816 10817 10817 10818 10818 10818 10818 10818 10819 10819 10818 10818 10817 10817 10816 10815 10814 10813 10813 10812 10812 10811 10809 10809 10810 10809 10807 10806 10807 10806 10806 10806 10807 10807 10807 10806 10805 10804 10803 10801 10799 10802 10806 10805 10801 10799 10798 10800 10801 10800 10798 10796 10795 10792 10790 10788 10788 10787 10787 10786 10784 10782 10779 10776 10775 10774 10772 10769 10767 10763 10760 10757 10754 10750 10746 10743 10738 10733 10728 10723 10718 10714
10807 10808 10808 10809 10809 10810 10810 10810 10811 10811 10811 10811 10811 10811 10811 10810 10810 10809 10808 10807 10806 10806 10805 10804 10804 10803 10803 10803 10803 10801 10800 10799 10799 10799 10800 10801 10800 10799 10798 10796 10795 10794 10792 10790 10792 10795 10797 10796 10795 10792 10791 10793 10793 10791 10790 10789 10787 10786 10785 10783 10782 10781 10780 10779 10776 10773 10771 10769 10768 10766 10764 10761 10758 10755 10752 10749 10745 10741 10737 10733 10727 10722 10718 10713 10708
10800 10800 10801 10801 10802 10802 10802 10802 10803 10803 10803 10803 10803 10803 10802 10803 10802 10802 10801 10800 10799 10799 10799 10798 10798 10796 10795 10795 10795 10794 10794 10794 10792 10792 10792 10793 10793 10792 10790 10787 10786 10785 10784 10783 10784 10787 10788 10789 10790 10788 10786 10786 10786 10783 10784 10786 10785 10782 10781 10778 10776 10775 10774 10772 10769 10767 10765 10764 10762 10760 10758 10755 10752 10749 10746 10742 10739 10735 10731 10727 10722 10717 10712 10708 10703
10791 10792 10793 10793 10793 10793 10794 10794 10794 10795 10795 10795 10795 10794 10794 10794 10794 10794 10793 10792 10792 10792 10793 10792 10791 10789 10788 10788 10787 10787 10788 10788 10786 10785 10785 10785 10786 10785 10783 10780 10778 10778 10778 10777 10777 10780 10782 10784 10784 10781 10780 10783 10785 10779 10778 10781 10781 10777 10774 10772 10770 10769 10768 10765 10762 10759 10758 10757 10756 10754 10752 10750 10747 10743 10740 10736 10733 10729 10726 10721 10716 10711 10706 10702 10698
10783 10783 10783 10784 10784 10784 10784 10784 10785 10786 10786 10786 10786 10786 10786 10786 10786 10785 10785 10784 10785 10785 10784 10784 10783 10782 10781 10781 10780 10780 10781 10779 10778 10778 10779 10780 10780 10777 10776 10776 10773 10771 10773 10774 10773 10774 10776 10778 10779 10777 10777 10782 10783 10777 10773 10774 10773 10769 10767 10765 10764 10764 10762 10759 10756 10753 10752 10752 10751 10748 10746 10744 10741 10738 10735 10731 10727 10724 10720 10715 10710 10705 10701 10696 10692
10773 10773 10774 10774 10774 10774 10775 10775 10775 10776 10776 10777 10777 10777 10777 10777 10777 10777 10777 10777 10777 10777 10777 10775 10774 10773 10773 10772 10772 10773 10773 10770 10769 10772 10774 10775 10774 10772 10772 10771 10767 10762 10765 10770 10773 10772 10772 10773 10774 10773 10772 10774 10775 10771 10769 10769 10767 10763 10762 10760 10758 10757 10755 10752 10750 10748 10746 10746 10745 10743 10740 10738 10735 10732 10730 10726 10722 10718 10714 10709 10704 10700 10695 10691 10687
10763 10764 10764 10764 10764 10765 10765 10765 10766 10767 10767 10768 10768 10768 10768 10768 10768 10768 10769 10769 10770 10770 10769 10767 10766 10766 10765 10764 10763 10765 10765 10762 10762 10767 10770 10769 10766 10764 10762 10760 10756 10754 10756 10763 10768 10770 10770 10771 10771 10769 10766 10767 10769 10767 10765 10764 10761 10757 10756 10755 10753 10751 10748 10746 10744 10743 10741 10740 10739 10736 10734 10732 10729 10727 10724 10720 10716 10712 10708 10704 10699 10694 10690 10686 10681
10752 10753 10753 10754 10754 10754 10755 10756 10757 10757 10758 10758 10759 10759 10760 10759 10759 10759 10760 10761 10762 10762 10760 10759 10759 10759 10758 10756 10756 10757 10758 10756 10756 10762 10765 10762 10757 10753 10751 10749 10748 10746 10748 10754 10762 10768 10769 10768 10766 10763 10760 10761 10763 10760 10757 10755 10754 10752 10750 10748 10746 10744 10742 10741 10739 10737 10736 10735 10733 10730 10729 10726 10723 10720 10718 10713 10709 10706 10702 10698 10693 10688 10684 10680 10676
10741 10741 10742 10742 10743 10743 10744 10745 10746 10747 10748 10749 10749 10750 10750 10749 10749 10749 10750 10751 10753 10753 10751 10750 10750 10751 10750 10749 10749 10750 10752 10751 10752 10756 10759 10755 10749 10745 10744 10743 10743 10742 10743 10750 10759 10764 10763 10759 10756 10753 10752 10754 10755 10752 10750 10749 10747 10744 10742 10740 10739 10738 10737 10736 10735 10733 10731 10729 10727 10725 10723 10720 10716 10713 10710 10706 10703 10699 10696 10691 10687 10682 10678 10674 10669
10729 10730 10730 10731 10732 10732 10733 10734 10736 10738 10738 10739 10739 10739 10739 10738 10738 10738 10740 10741 10743 10743 10742 10741 10742 10742 10742 10741 10740 10742 10745 10746 10746 10750 10753 10750 10744 10741 10740 10739 10740 10740 10742 10748 10754 10756 10754 10751 10749 10747 10746 10747 10746 10744 10742 10740 10738 10735 10734 10733 10733 10732 10731 10730 10729 10727 10725 10723 10721 10719 10716 10713 10709 10706 10703 10700 10696 10693 10689 10684 10680 10676 10672 10667 10663
10719 10719 10720 10721 10722 10723 10723 10725 10726 10728 10728 10729 10728 10728 10727 10727 10726 10727 10728 10730 10732 10733 10733 10733 10733 10733 10733 10732 10732 10734 10738 10739 10739 10742 10744 10741 10737 10735 10735 10737 10739 10741 10743 10747 10749 10748 10745 10742 10741 10739 10739 10738 10737 10734 10732 10731 10730 10729 10728 10728 10728 10727 10725 10724 10722 10720 10718 10716 10714 10711 10708 10705 10702 10699 10696 10692 10689 10686 10682 10677 10673 10670 10666 10661 10656
10708 10709 10710 10712 10713 10713 10714 10716 10717 10718 10718 10718 10717 10716 10715 10714 10715 10715 10716 10718 10720 10723 10724 10724 10723 10724 10724 10725 10725 10727 10729 10731 10732 10734 10733 10731 10728 10726 10727 10731 10734 10736 10738 10741 10740 10737 10734 10732 10731 10731 10730 10728 10727 10726 10725 10724 10723 10722 10722 10722 10721 10720 10719 10717 10715 10713 10710 10708 10706 10703 10700 10697 10694 10691 10688 10685 10682 10679 10675 10670 10667 10663 10659 10654 10650
10699 10700 10701 10703 10704 10704 10705 10706 10707 10707 10707 10706 10704 10703 10702 10702 10702 10703 10704 10705 10708 10711 10712 10713 10714 10714 10715 10716 10719 10720 10720 10720 10723 10725 10724 10724 10722 10719 10718 10721 10723 10724 10726 10728 10727 10724 10723 10723 10723 10722 10721 10720 10720 10719 10718 10717 10717 10716 10716 10716 10715 10713 10712 10710 10707 10705 10702 10700 10698 10695 10692 10688 10686 10683 10681 10678 10674 10671 10667 10663 10660 10656 10652 10647 10643
10690 10691 10692 10694 10695 10696 10696 10697 10697 10697 10696 10695 10693 10692 10691 10690 10690 10691 10692 10693 10696 10698 10701 10702 10703 10705 10706 10707 10710 10713 10711 10709 10711 10715 10715 10714 10712 10711 10711 10714 10716 10716 10716 10716 10715 10714 10713 10713 10714 10713 10713 10712 10712 10711 10710 10710 10710 10709 10709 10708 10706 10705 10703 10701 10699 10696 10694 10692 10689 10686 10683 10680 10677 10676 10673 10670 10666 10662 10659 10656 10652 10649 10645 10640 10635
10681 10682 10684 10685 10686 10686 10687 10687 10688 10687 10686 10685 10683 10682 10680 10679 10679 10680 10681 10683 10685 10687 10689 10691 10692 10695 10697 10698 10701 10704 10703 10698 10699 10703 10705 10704 10702 10701 10702 10705 10707 10707 10706 10706 10705 10704 10704 10704 10705 10705 10704 10703 10703 10702 10702 10702 10702 10701 10700 10699 10698 10696 10694 10692 10689 10687 10685 10682 10680 10677 10674 10671 10669 10667 10665 10662 10658 10654 10651 10648 10644 10641 10637 10632 10628
10671 10673 10674 10676 10677 10677 10678 10678 10678 10678 10677 10676 10675 10673 10671 10670 10670 10670 10671 10673 10674 10675 10677 10680 10682 10685 10688 10689 10691 10693 10693 10690 10689 10692 10694 10694 10693 10693 10692 10692 10693 10694 10694 10695 10695 10695 10695 10695 10695 10695 10694 10694 10694 10694 10694 10693 10692 10692 10691 10689 10688 10686 10683 10681 10679 10677 10675 10673 10671 10668 10665 10663 10661 10659 10656 10653 10650 10647 10643 10640 10636 10632 10628 10624 10620
10660 10663 10665 10666 10667 10668 10669 10669 10669 10669 10669 10668 10666 10665 10663 10663 10662 10663 10663 10663 10663 10664 10665 10668 10672 10676 10679 10680 10681 10683 10684 10683 10681 10681 10681 10680 10682 10684 10684 10682 10681 10682 10684 10686 10687 10687 10688 10688 10688 10688 10688 10687 10686 10686 10685 10685 10684 10682 10680 10678 10676 10675 10673 10671 10670 10668 10666 10664 10661 10658 10656 10653 10651 10649 10647 10645 10642 10639 10635 10631 10627 10623 10619 10616 10613
10651 10653 10655 10656 10657 10658 10658 10659 10660 10660 10659 10659 10657 10656 10655 10655 10654 10655 10654 10654 10654 10654 10654 10657 10661 10665 10668 10670 10672 10674 10676 10675 10673 10672 10669 10667 10667 10670 10672 10673 10673 10674 10675 10676 10677 10678 10679 10679 10680 10680 10680 10679 10678 10677 10676 10675 10673 10671 10669 10667 10666 10664 10663 10662 10660 10659 10657 10654 10651 10648 10645 10643 10642 10640 10639 10636 10633 10630 10626 10622 10618 10614 10611 10608 10605
10641 10644 10646 10647 10648 10648 10648 10649 10650 10650 10650 10649 10648 10647 10646 10646 10646 10646 10646 10645 10645 10645 10645 10647 10649 10652 10656 10660 10663 10665 10667 10667 10665 10662 10659 10656 10654 10654 10656 10659 10662 10664 10665 10666 10666 10667 10667 10667 10668 10668 10668 10667 10667 10666 10665 10663 10662 10660 10659 10657 10656 10655 10653 10652 10650 10648 10646 10643 10640 10637 10635 10633 10632 10630 10629 10627 10624 10621 10617 10613 10610 10606 10603 10601 10598
10629 10633 10636 10637 10638 10639 10639 10639 10640 10640 10640 10639 10638 10638 10637 10637 10637 10637 10637 10637 10636 10637 10637 10637 10638 10640 10643 10647 10651 10654 10657 10658 10656 10653 10650 10648 10646 10645 10644 10645 10647 10649 10651 10653 10654 10654 10654 10654 10654 10654 10654 10654 10654 10654 10653 10652 10650 10649 10648 10646 10645 10644 10642 10640 10638 10636 10634 10632 10629 10627 10624 10623 10621 10619 10617 10616 10614 10611 10607 10604 10601 10598 10595 10593 10590
10618 10620 10623 10626 10627 10628 10628 10629 10629 10630 10630 10629 10629 10629 10629 10628 10628 10627 10627 10627 10628 10628 10629 10629 10629 10629 10631 10635 10639 10641 10643 10644 10645 10643 10641 10639 10638 10637 10636 10635 10635 10635 10636 10639 10641 10642 10642 10641 10642 10642 10642 10642 10642 10641 10641 10640 10638 10637 10636 10634 10633 10631 10629 10627 10625 10623 10621 10620 10618 10616 10614 10612 10610 10608 10606 10604 10603 10601 10598 10595 10592 10590 10587 10584 10582